• Join FlightAware (Why Join?)
  • Login
  • US Flag 
12:44PM EDT


 

Airport Tracker/Info


-or-


 

Live Flight TrackerFlight Track Log ✈ UAL3773 ✈ 19-Apr-2013 ✈ KCLT - KIAD

Flight Track Log - Related Links

Times and Time Zones

All times are in EDT time to prevent confusion due to time zone crossing. See the UAL3773 flight status page for this flight to view local times or setup timezone preferences in your user account.

Time Position Orientation Groundspeed Altitude Reporting Facility
EDT Latitude Longitude Course Direction KTS MPH feet Rate Location/Type
10:35AM 35.1969 -80.9331 72° East 150 173 1,600  Level FAA TRACON SMA TRACON (SMA)
10:36AM 35.1814 -80.9308 173° South 149 171 2,500 2,220 Climbing FAA TRACON SMA TRACON (SMA)
10:36AM 35.1683 -80.9303 178° South 153 176 3,100 1,620 Climbing FAA TRACON SMA TRACON (SMA)
10:36AM 35.1533 -80.9256 166° South 191 220 3,600 1,500 Climbing FAA TRACON SMA TRACON (SMA)
10:37AM 35.1339 -80.9075 143° Southeast 243 280 4,100 1,920 Climbing FAA TRACON SMA TRACON (SMA)
10:37AM 35.1178 -80.8892 137° Southeast 255 293 4,900 2,220 Climbing FAA TRACON SMA TRACON (SMA)
10:37AM 35.1033 -80.8717 135° Southeast 266 306 5,600 2,820 Climbing FAA TRACON SMA TRACON (SMA)
10:38AM 35.0942 -80.8317 106° East 316 364 6,800 3,000 Climbing FAA TRACON SMA TRACON (SMA)
10:38AM 35.0967 -80.7992 85° East 318 366 7,600 1,260 Climbing FAA TRACON SMA TRACON (SMA)
10:38AM 35.1000 -80.7661 83° East 320 368 7,700 720 Climbing FAA TRACON SMA TRACON (SMA)
10:39AM 35.2766 -80.5120 30° Northeast  Level FlightAware Approximate
10:39AM 35.1042 -80.7233 83° East 327 376 8,100  Level FAA TRACON SMA TRACON (SMA)
10:39AM 35.1078 -80.6889 83° East 331 381 8,700 1,800 Climbing FAA TRACON SMA TRACON (SMA)
10:39AM 35.1175 -80.6558 70° East 334 384 9,300 1,860 Climbing FAA TRACON SMA TRACON (SMA)
10:40AM 35.3497 -80.4047 72° East  Level FlightAware Approximate
10:40AM 35.1375 -80.6300 47° Northeast 346 398 9,900  Level FAA TRACON SMA TRACON (SMA)
10:40AM 35.1658 -80.6089 31° Northeast 349 402 11,000 2,820 Climbing FAA TRACON SMA TRACON (SMA)
10:40AM 35.1933 -80.5892 30° Northeast 342 394 11,800 1,500 Climbing FAA TRACON SMA TRACON (SMA)
10:41AM 35.2189 -80.5706 31° Northeast 350 403 12,000 720 Climbing FAA TRACON SMA TRACON (SMA)
10:41AM 35.2547 -80.5444 31° Northeast 398 458 12,300 1,320 Climbing FAA TRACON SMA TRACON (SMA)
10:41AM 35.2842 -80.5231 31° Northeast 408 470 12,900 2,040 Climbing FAA TRACON SMA TRACON (SMA)
10:42AM 35.3194 -80.4936 34° Northeast 399 459 13,700 2,100 Climbing FAA TRACON SMA TRACON (SMA)
10:42AM 35.3389 -80.4586 56° Northeast 400 460 14,300 1,680 Climbing FAA TRACON SMA TRACON (SMA)
10:42AM 35.3511 -80.4192 69° East 407 468 14,800 1,200 Climbing FAA TRACON SMA TRACON (SMA)
10:43AM 35.3600 -80.3886 70° East 410 472 15,100 240 Climbing FAA TRACON SMA TRACON (SMA)
10:43AM 35.3600 -80.3886 270° West 410 472 15,100 1,920 Level FAA TRACON SMA TRACON (SMA)
10:45AM 35.4647 -80.0192 71° East 404 465 20,300 2,160 Climbing Washington Center
10:46AM 35.5014 -79.8758 73° East 421 484 21,600 1,500 Climbing Washington Center
10:47AM 35.5378 -79.7297 73° East 436 502 23,300 1,500 Climbing Washington Center
10:48AM 35.5669 -79.6136 73° East 436 502 24,700 1,500 Climbing Washington Center
10:49AM 35.6119 -79.4500 71° East 423 487 26,300 1,020 Climbing Washington Center
10:50AM 35.6597 -79.3219 65° Northeast 410 472 26,800 300 Climbing Washington Center
10:51AM 35.7242 -79.1944 58° Northeast 415 478 27,000 60 Climbing Washington Center
10:52AM 35.8328 -79.1175 30° Northeast 415 478 27,000  Level Washington Center
10:53AM 35.9353 -79.0372 32° Northeast 423 487 27,000  Level Washington Center
10:54AM 36.0439 -78.9622 29° Northeast 434 499 27,000  Level Washington Center
10:55AM 36.1506 -78.8819 31° Northeast 444 511 27,000  Level Washington Center
10:56AM 36.2550 -78.8039 31° Northeast 444 511 27,000  Level Washington Center
10:57AM 36.3656 -78.7208 31° Northeast 444 511 27,000  Level Washington Center
10:58AM 36.4742 -78.6372 32° Northeast 444 511 27,000  Level Washington Center
10:59AM 36.5847 -78.5536 31° Northeast 455 524 27,000  Level Washington Center
11:00AM 36.6953 -78.4697 31° Northeast 460 529 27,000 -180 Level Washington Center
11:01AM 36.8014 -78.3881 32° Northeast 460 529 26,700 -720 Descending Washington Center
11:02AM 36.9097 -78.3064 31° Northeast 460 529 25,600 -1,020 Descending Washington Center
11:03AM 37.0053 -78.2317 32° Northeast 460 529 24,700 -1,020 Descending Washington Center
11:04AM 37.1200 -78.1444 31° Northeast 455 524 23,600 -1,080 Descending Washington Center
11:05AM 37.2300 -78.0619 31° Northeast 455 524 22,600 -840 Descending Washington Center
11:06AM 37.3403 -77.9769 31° Northeast 461 531 22,000 -300 Descending Washington Center
11:07AM 37.4525 -77.8886 32° Northeast 461 531 22,000  Level Washington Center
11:08AM 37.5689 -77.8058 29° Northeast 461 531 22,000 2,460 Level Washington Center
11:09AM 37.6828 -77.7356 26° Northeast 466 536 27,000 -2,340 Climbing Washington Center
11:10AM 37.7967 -77.6706 24° Northeast 452 520 17,400 -6,180 Descending Washington Center
11:11AM 37.9081 -77.6078 24° Northeast 446 513 14,700 -2,820 Descending Washington Center
11:12AM 38.0114 -77.5447 26° Northeast 427 491 11,800 -2,400 Descending Washington Center
11:13AM 38.1019 -77.4942 24° Northeast 411 473 10,000 -900 Descending Washington Center
11:14AM 38.1903 -77.4436 24° Northeast 375 432 10,000  Level Washington Center
11:15AM 38.2722 -77.3928 26° Northeast 341 392 10,000 -660 Level Washington Center
11:16AM 38.3583 -77.3578 18° North 327 376 8,700 -1,500 Descending Washington Center
11:17AM 38.4439 -77.3597 359° North 310 357 7,100 -1,500 Descending Washington Center
11:18AM 38.5292 -77.3644 358° North 310 357 5,700 -1,080 Descending Washington Center
11:19AM 38.6167 -77.3667 359° North 310 357 5,000 -780 Descending Washington Center
11:20AM 38.7000 -77.3667 360° North 306 352 4,300 -600 Descending Potomac TRACON
11:21AM 38.7667 -77.3500 11° North 300 345 4,000 -180 Descending Potomac TRACON
11:22AM 38.8500 -77.3500 360° North 293 337 4,000  Level Potomac TRACON
11:23AM 38.9167 -77.3500 360° North 269 310 4,000  Level Potomac TRACON
11:24AM 39.0000 -77.3500 360° North 259 298 4,000  Level Potomac TRACON
11:25AM 39.0667 -77.3500 360° North 272 313 4,000  Level Potomac TRACON
11:26AM 39.1333 -77.3500 360° North 251 289 4,000  Level Potomac TRACON
11:27AM 39.2000 -77.3500 360° North 245 282 4,000  Level Potomac TRACON
11:28AM 39.2667 -77.3500 360° North 240 276 4,000 -300 Level Potomac TRACON
11:29AM 39.2667 -77.4000 270° West 171 197 3,500 -540 Descending Potomac TRACON
11:30AM 39.2333 -77.4333 218° Southwest 154 177 3,000 -300 Descending Potomac TRACON
11:31AM 39.2000 -77.4333 180° South 147 169 3,000  Level Potomac TRACON
11:32AM 39.1500 -77.4333 180° South 152 175 3,000  Level Potomac TRACON
11:33AM 39.1167 -77.4333 180° South 151 174 3,000 -240 Level Potomac TRACON
11:34AM 39.0667 -77.4333 180° South 153 176 2,600 -420 Descending Potomac TRACON